1504512001.21,41869,17.31,73312.8,0.07,-1.29,-1.35,0,*75
1504512002.41,41870,17.31,73308.5,0.07,-1.29,-1.25,0,*7C
1504512003.67,41871,17.31,73314.8,0.07,-1.13,-1.05,0,*76
1504512004.87,41872,17.31,73312.5,0.07,-0.81,-0.81,0,*72
1504512006.08,41873,17.31,73304.5,0.05,-0.85,-0.85,0,*71
1504512007.3,41874,17.31,73306.3,0.05,-0.97,-0.97,0,*76
1504512008.54,41875,17.31,73310.0,0.07,-0.89,-0.93,0,*7E
1504512009.74,41876,17.31,73308.0,0.07,-0.81,-0.69,0,*70
1504512010.91,41877,17.31,73316.3,0.05,-0.73,-0.69,0,*7E
1504512012.08,41878,17.31,73318.5,0.05,-0.65,-0.65,0,*7A
1504512013.24,41879,17.31,73332.3,0.05,-0.45,-0.45,0,*7B
1504512014.41,41880,17.31,73324.0,0.05,-0.33,-0.33,0,*7D
1504512015.6,41881,17.31,73318.8,0.05,-0.23,-0.19,0,*75
1504512016.8,41882,17.31,73322.0,0.07,-0.15,-0.15,0,*7D
1504512018.0,41883,17.31,73326.5,0.07,-0.61,-0.41,0,*7E
1504512019.23,41884,17.31,73324.8,0.07,-0.89,-0.81,0,*73
1504512020.47,41885,17.31,73312.5,0.07,-1.01,-0.93,0,*40
1504512021.7,41886,17.31,73324.5,0.09,-1.39,-1.35,0,*7B
1504512022.91,41887,17.31,73316.8,0.07,-1.51,-1.51,0,*78
1504512024.13,41888,17.31,73318.5,0.05,-1.43,-1.43,0,*75
1504512025.31,41889,17.31,73324.8,0.05,-1.33,-1.33,0,*74
1504512026.53,41890,17.31,73326.5,0.05,-1.09,-1.09,0,*7C
1504512027.75,41891,17.31,73326.0,0.01,-0.97,-0.97,0,*79
1504512028.96,41892,17.31,73324.5,0.05,-0.85,-0.85,0,*7E
1504512030.18,41893,17.31,73322.0,0.05,-1.05,-0.93,0,*41
1504512031.41,41894,17.31,73316.8,0.01,-1.01,-1.01,0,*7C
1504512032.63,41895,17.31,73316.3,0.01,-1.01,-0.97,0,*43
1504512033.82,41896,17.31,73324.8,0.05,-0.85,-0.73,0,*73
1504512034.98,41897,17.31,73328.3,0.05,-0.65,-0.65,0,*7B
1504512036.15,41898,17.31,73326.8,0.01,-0.57,-0.53,0,*74
1504512037.32,41899,17.31,73326.8,0.05,-0.69,-0.69,0,*75
1504512038.49,41900,17.31,73326.8,0.05,-0.73,-0.69,0,*7F
1504512039.65,41901,17.31,73320.8,0.05,-0.69,-0.65,0,*79
1504512040.82,41902,17.31,73324.3,0.05,-0.69,-0.65,0,*7A
1504512041.99,41903,17.31,73322.8,0.05,-0.65,-0.57,0,*76
1504512043.15,41904,17.31,73322.3,0.05,-0.69,-0.53,0,*79
1504512044.32,41905,17.31,73322.8,0.05,-0.57,-0.53,0,*75
1504512045.52,41906,17.31,73324.8,0.07,-0.49,-0.37,0,*79
1504512046.72,41907,17.31,73324.5,0.07,-0.41,-0.37,0,*70
1504512047.92,41908,17.31,73318.8,0.07,-0.61,-0.49,0,*74
1504512049.11,41909,17.31,73318.8,0.07,-0.49,-0.53,0,*74
1504512050.28,41910,17.31,73316.8,0.09,-0.41,-0.49,0,*71
1504512051.48,41911,17.31,73318.3,0.07,-0.49,-0.37,0,*7F
1504512052.65,41912,17.31,73318.5,0.09,-0.37,-0.41,0,*7A
1504512053.82,41913,17.31,73314.8,0.09,-0.41,-0.29,0,*74
1504512055.01,41914,17.31,73326.3,0.07,-0.29,-0.29,0,*73
1504512056.18,41915,17.31,73308.8,0.09,-0.49,-0.41,0,*74
1504512057.35,41916,17.31,73298.0,0.09,-0.77,-0.69,0,*70
1504512058.56,41917,17.31,73302.0,0.09,-0.89,-0.89,0,*7E
1504512059.73,41918,17.31,73304.0,0.09,-0.77,-0.69,0,*7E
1504512060.9,41919,17.31,73314.0,0.09,-0.41,-0.37,0,*71
1504512062.1,41920,17.31,73312.8,0.09,-0.27,-0.15,0,*7B
1504512063.28,41921,17.31,73312.5,0.11,-0.03,0.01,0,*6D
1504512064.47,41922,17.31,73308.8,0.11,-0.03,-0.03,0,*41
1504512065.64,41923,17.31,73310.3,0.13,0.01,0.01,0,*42
1504512066.83,41924,17.31,73310.8,0.11,-0.03,0.01,0,*68
1504512068.03,41925,17.31,73310.5,0.13,-0.11,-0.03,0,*77
1504512069.22,41926,17.31,73310.0,0.13,-0.11,0.01,0,*5B
1504512070.4,41927,17.31,73314.8,0.11,0.01,0.09,0,*4C
1504512071.63,41928,17.31,73314.8,0.13,0.13,0.17,0,*4D
1504512072.86,41929,17.31,73318.0,0.13,0.17,0.29,0,*45
1504512074.09,41930,17.31,73314.8,0.17,0.21,0.29,0,*4C
1504512075.32,41931,17.31,73316.0,0.17,0.17,0.21,0,*40
1504512076.56,41932,17.31,73318.8,0.17,0.21,0.21,0,*46
1504512077.79,41933,17.31,73320.3,0.17,0.21,0.33,0,*44
1504512079.01,41934,17.31,73318.8,0.17,0.33,0.33,0,*40
1504512080.2,41935,17.38,73320.8,0.19,0.37,0.43,0,*4C
1504512081.4,41936,17.31,73316.8,0.21,0.37,0.43,0,*44
1504512082.59,41937,17.31,73320.3,0.19,0.33,0.43,0,*4A
1504512083.81,41938,17.31,73320.8,0.21,0.33,0.33,0,*49
1504512085.04,41939,17.31,73314.3,0.21,0.33,0.33,0,*48
1504512086.25,41940,17.31,73310.3,0.23,0.29,0.37,0,*4B
1504512087.46,41941,17.31,73308.5,0.23,0.29,0.29,0,*45
1504512088.66,41942,17.31,73312.5,0.27,0.33,0.33,0,*42
1504512089.86,41943,17.38,73330.3,0.27,0.33,0.41,0,*46
1504512091.05,41944,17.31,73324.0,0.27,0.33,0.43,0,*43
1504512092.28,41945,17.31,73324.5,0.29,0.33,0.29,0,*40
1504512093.49,41946,17.31,73322.8,0.23,0.25,0.21,0,*46
1504512094.69,41947,17.31,73322.8,0.27,0.17,0.25,0,*46
1504512095.9,41948,17.31,73322.3,0.27,0.17,0.17,0,*48
1504512097.13,41949,17.31,73324.0,0.29,0.17,0.17,0,*47
1504512098.34,41950,17.31,73330.8,0.31,0.21,0.21,0,*46
1504512099.56,41951,17.38,73332.8,0.29,0.17,0.25,0,*4F
1504512100.8,41952,17.31,73334.8,0.29,0.25,0.25,0,*4D
1504512102.0,41953,17.38,73336.5,0.31,0.17,0.21,0,*40
1504512103.21,41954,17.31,73318.5,0.29,-0.19,-0.11,0,*43
1504512104.41,41955,17.31,73312.8,0.29,-0.33,-0.41,0,*4F
1504512105.62,41956,17.31,73326.5,0.29,-0.41,-0.41,0,*49
1504512106.82,41957,17.31,73330.0,0.29,-0.33,-0.33,0,*48
1504512108.05,41958,17.38,73328.0,0.29,-0.23,-0.19,0,*4E
1504512109.27,41959,17.31,73320.3,0.29,-0.23,-0.19,0,*4F
1504512110.5,41960,17.31,73322.3,0.29,-0.23,-0.19,0,*45
1504512111.7,41961,17.31,73318.8,0.29,-0.19,-0.07,0,*72
1504512112.87,41962,17.31,73320.0,0.29,0.01,0.05,0,*4A
1504512114.1,41963,17.31,73322.0,0.29,0.13,0.17,0,*4B
1504512115.33,41964,17.38,73328.8,0.29,0.17,0.25,0,*49
1504512116.56,41965,17.38,73326.8,0.33,0.29,0.37,0,*4D
1504512117.79,41966,17.31,73320.5,0.29,0.29,0.33,0,*41
1504512118.99,41967,17.31,73320.0,0.31,0.37,0.37,0,*42
1504512120.2,41968,17.31,73318.5,0.31,0.37,0.37,0,*4D
1504512121.4,41969,17.38,73326.8,0.31,0.33,0.33,0,*4C
1504512122.61,41970,17.31,73322.0,0.31,0.29,0.29,0,*44
1504512123.81,41971,17.31,73322.3,0.31,0.17,0.21,0,*40
1504512124.97,41972,17.31,73320.3,0.35,0.09,0.09,0,*42
1504512126.16,41973,17.38,73320.8,0.33,-0.03,-0.03,0,*45
1504512127.35,41974,17.38,73320.5,0.33,-0.03,-0.07,0,*46
1504512128.54,41975,17.31,73322.3,0.33,-0.03,0.05,0,*68
1504512129.77,41976,17.31,73320.3,0.33,0.17,0.21,0,*45
1504512130.98,41977,17.31,73320.3,0.35,0.21,0.21,0,*47
1504512132.19,41978,17.38,73320.5,0.35,0.21,0.33,0,*4B
1504512133.41,41979,17.38,73322.3,0.33,0.17,0.17,0,*4F
1504512134.6,41980,17.31,73318.0,0.35,0.09,0.21,0,*75
1504512135.79,41981,17.31,73312.3,0.33,-0.03,0.05,0,*63
1504512137.01,41982,17.31,73308.8,0.33,-0.27,-0.15,0,*4A
1504512138.21,41983,17.38,73310.0,0.33,-0.53,-0.41,0,*49
1504512139.39,41984,17.31,73308.3,0.35,-0.65,-0.73,0,*4C
1504512140.62,41985,17.31,73306.8,0.35,-0.97,-0.85,0,*49
1504512141.85,41986,17.31,73298.5,0.35,-1.01,-1.09,0,*41
1504512143.1,41987,17.31,73290.8,0.33,-1.13,-1.05,0,*49
1504512144.34,41988,17.38,73306.3,0.33,-1.17,-1.13,0,*45
1504512145.59,41989,17.31,73300.3,0.33,-1.05,-0.93,0,*7E
1504512146.79,41990,17.38,73308.0,0.31,-0.89,-0.81,0,*42
1504512147.96,41991,17.38,73304.0,0.31,-0.81,-0.69,0,*4D
1504512149.14,41992,17.31,73296.3,0.31,-0.69,-0.69,0,*48
1504512150.31,41993,17.31,73302.5,0.31,-0.57,-0.57,0,*49
1504512151.48,41994,17.31,73302.8,0.31,-0.45,-0.45,0,*4E
1504512152.68,41995,17.31,73308.8,0.33,-0.37,-0.19,0,*41
1504512153.85,41996,17.31,73304.8,0.31,-0.19,-0.07,0,*73
1504512155.04,41997,17.31,73306.5,0.33,-0.03,-0.03,0,*4F
1504512156.22,41998,17.31,73300.3,0.33,0.09,0.09,0,*40
1504512157.43,41999,17.38,73308.8,0.33,0.09,0.21,0,*7B
1504512158.66,42000,17.31,73306.3,0.33,0.17,0.21,0,*4E
1504512159.87,42001,17.38,73314.8,0.35,0.25,0.25,0,*4C
1504512161.08,42002,17.38,73316.0,0.35,0.25,0.25,0,*4F
1504512162.28,42003,17.38,73314.3,0.35,0.25,0.25,0,*4E
1504512163.52,42004,17.31,73310.3,0.37,0.25,0.21,0,*4F
1504512164.72,42005,17.31,73312.3,0.35,0.13,0.13,0,*48
1504512165.88,42006,17.38,73312.3,0.35,0.09,0.09,0,*4B
1504512167.05,42007,17.31,73292.3,0.35,-0.03,0.09,0,*6D
1504512168.23,42008,17.38,73292.8,0.35,-0.11,-0.15,0,*41
1504512169.43,42009,17.31,73292.5,0.35,-0.23,-0.15,0,*41
1504512170.64,42010,17.38,73292.0,0.35,-0.23,-0.15,0,*49
1504512171.84,42011,17.38,73298.8,0.35,-0.23,-0.15,0,*48
1504512173.02,42012,17.38,73300.5,0.35,-0.15,-0.11,0,*4A
1504512174.24,42013,17.38,73300.8,0.37,-0.23,-0.15,0,*48
1504512175.46,42014,17.38,73298.5,0.37,-0.37,-0.27,0,*4B
1504512176.67,42015,17.38,73304.5,0.37,-0.41,-0.37,0,*4A
1504512177.87,42016,17.38,73314.8,0.37,-0.41,-0.37,0,*49
1504512179.07,42017,17.38,73310.3,0.37,-0.49,-0.37,0,*40
1504512180.27,42018,17.38,73292.5,0.37,-0.53,-0.49,0,*4D
1504512181.46,42019,17.38,73278.5,0.37,-0.65,-0.61,0,*43
1504512182.64,42020,17.38,73286.3,0.35,-0.77,-0.73,0,*4B
1504512183.89,42021,17.38,73296.8,0.33,-1.05,-1.01,0,*4C
1504512185.13,42022,17.31,73274.0,0.35,-1.13,-1.09,0,*46
1504512186.38,42023,17.31,73286.5,0.33,-1.13,-1.05,0,*4D
1504512187.61,42024,17.38,73282.3,0.35,-0.97,-0.89,0,*44
1504512188.86,42025,17.38,73290.0,0.33,-1.13,-1.13,0,*4C
1504512190.08,42026,17.38,73282.5,0.33,-1.25,-1.13,0,*4A
1504512191.32,42027,17.38,73274.0,0.33,-0.93,-0.93,0,*4E
1504512192.52,42028,17.31,73282.8,0.33,-0.69,-0.69,0,*41
1504512193.71,42029,17.38,73282.0,0.33,-0.45,-0.45,0,*40
1504512194.93,42030,17.31,73294.0,0.33,-0.37,-0.27,0,*49
1504512196.12,42031,17.38,73294.0,0.35,-0.11,-0.11,0,*4F
1504512197.31,42032,17.31,73288.5,0.33,-0.03,-0.03,0,*4A
1504512198.48,42033,17.38,73298.8,0.35,0.01,0.13,0,*7E
1504512199.66,42034,17.38,73296.0,0.35,0.09,0.13,0,*71
1504512200.89,42035,17.38,73296.5,0.37,0.13,0.25,0,*4C
1504512202.12,42036,17.38,73308.3,0.37,0.21,0.25,0,*4E
1504512203.35,42037,17.38,73310.3,0.37,0.25,0.21,0,*4F
1504512204.58,42038,17.38,73290.5,0.37,0.25,0.25,0,*44
1504512205.8,42039,17.38,73298.0,0.37,0.25,0.33,0,*42
1504512207.03,42040,17.38,73296.8,0.37,0.25,0.25,0,*4B
1504512208.24,42041,17.38,73296.8,0.39,0.29,0.29,0,*44
1504512209.46,42042,17.38,73304.0,0.37,0.25,0.25,0,*49
1504512210.67,42043,17.38,73302.5,0.39,0.25,0.29,0,*4A
1504512211.87,42044,17.38,73294.3,0.39,0.25,0.25,0,*41
1504512213.11,42045,17.38,73302.5,0.37,0.21,0.21,0,*4E
1504512214.31,42046,17.38,73302.8,0.39,0.17,0.25,0,*42
1504512215.53,42047,17.38,73300.3,0.37,0.13,0.13,0,*4C
1504512216.74,42048,17.38,73302.5,0.39,0.17,0.17,0,*4D
1504512217.94,42049,17.38,73312.5,0.39,0.21,0.13,0,*4D
1504512219.17,42050,17.38,73312.3,0.41,0.29,0.29,0,*4B
1504512220.39,42051,17.38,73318.8,0.41,0.29,0.29,0,*4A
1504512221.61,42052,17.31,73308.8,0.41,0.17,0.29,0,*44
1504512222.84,42053,17.38,73302.0,0.41,0.21,0.29,0,*40
1504512224.07,42054,17.38,73304.8,0.41,0.21,0.21,0,*4F
1504512225.3,42055,17.38,73302.8,0.41,0.17,0.21,0,*4B
1504512226.53,42056,17.38,73300.8,0.41,0.21,0.21,0,*4D
1504512227.75,42057,17.38,73312.3,0.41,0.17,0.17,0,*4C
1504512228.95,42058,17.38,73308.5,0.41,0.09,0.17,0,*7C
1504512230.15,42059,17.31,73300.5,0.41,0.09,0.17,0,*7D
1504512231.32,42060,17.38,73306.8,0.43,0.09,0.17,0,*75
1504512232.53,42061,17.38,73312.0,0.41,0.09,0.21,0,*73
1504512233.71,42062,17.38,73312.0,0.43,0.09,0.21,0,*72
1504512234.91,42063,17.38,73316.8,0.41,0.09,0.21,0,*71
1504512236.12,42064,17.38,73312.8,0.41,0.09,0.21,0,*76
1504512237.32,42065,17.38,73318.3,0.43,0.17,0.21,0,*4A
1504512238.5,42066,17.38,73316.8,0.43,0.05,0.17,0,*7F
1504512239.67,42067,17.38,73314.3,0.43,0.05,0.17,0,*7E
1504512240.83,42068,17.38,73312.3,0.43,-0.03,0.09,0,*65
1504512241.99,42069,17.38,73314.3,0.43,-0.03,0.05,0,*68
1504512243.15,42070,17.38,73312.8,0.43,-0.07,0.09,0,*68
1504512244.31,42071,17.38,73314.3,0.45,-0.03,0.09,0,*6B
1504512245.48,42072,17.38,73312.5,0.45,-0.03,0.09,0,*68
1504512246.64,42073,17.38,73314.5,0.45,-0.03,0.01,0,*61
1504512247.8,42074,17.38,73318.5,0.45,-0.03,-0.03,0,*49
1504512248.96,42075,17.38,73308.5,0.43,-0.07,-0.03,0,*4A
1504512250.13,42076,17.38,73308.8,0.43,-0.15,-0.07,0,*7E
1504512251.29,42077,17.38,73308.0,0.45,-0.11,0.01,0,*56
1504512252.48,42078,17.38,73312.8,0.47,-0.11,0.01,0,*5B
1504512253.66,42079,17.38,73306.3,0.45,-0.11,-0.03,0,*77
1504512254.83,42080,17.38,73310.8,0.45,-0.11,-0.03,0,*71
1504512256.0,42081,17.38,73308.0,0.45,-0.11,-0.03,0,*70
1504512257.17,42082,17.38,73310.0,0.45,-0.15,-0.03,0,*77
1504512258.35,42083,17.38,73312.8,0.45,-0.11,-0.03,0,*72
1504512259.52,42084,17.38,73316.8,0.43,-0.19,-0.15,0,*4C
1504512260.7,42085,17.38,73318.3,0.45,-0.15,-0.11,0,*43
1504512261.88,42086,17.38,73320.5,0.45,-0.15,-0.15,0,*44
1504512263.08,42087,17.38,73320.3,0.45,-0.27,-0.11,0,*40
1504512264.26,42088,17.38,73318.8,0.45,-0.15,-0.15,0,*4A
1504512265.44,42089,17.38,73314.8,0.45,-0.15,-0.11,0,*4F
1504512266.64,42090,17.38,73316.8,0.45,-0.23,-0.11,0,*42
1504512267.87,42091,17.38,73316.3,0.47,-0.23,-0.11,0,*41
1504512269.07,42092,17.38,73316.5,0.45,-0.23,-0.15,0,*44
1504512270.27,42093,17.38,73314.8,0.45,-0.23,-0.15,0,*45
1504512271.47,42094,17.38,73318.0,0.45,-0.27,-0.11,0,*42
1504512272.68,42095,17.38,73318.0,0.47,-0.15,-0.15,0,*44
1504512273.9,42096,17.38,73316.8,0.47,-0.23,-0.11,0,*46
1504512275.13,42097,17.38,73326.5,0.47,-0.23,-0.15,0,*43
1504512276.36,42098,17.38,73314.5,0.47,-0.27,-0.15,0,*48
1504512277.58,42099,17.38,73312.0,0.47,-0.27,-0.15,0,*49
1504512278.81,42100,17.38,73316.8,0.47,-0.27,-0.15,0,*48
1504512280.01,42101,17.38,73320.3,0.45,-0.27,-0.15,0,*4B
1504512281.26,42102,17.38,73324.3,0.47,-0.27,-0.23,0,*4F
1504512282.48,42103,17.38,73320.5,0.45,-0.27,-0.23,0,*4C
1504512283.72,42104,17.38,73316.0,0.47,-0.27,-0.23,0,*49
1504512284.97,42105,17.38,73316.8,0.47,-0.27,-0.23,0,*48
1504512286.21,42106,17.38,73314.5,0.47,-0.27,-0.23,0,*4B
1504512287.46,42107,17.38,73314.0,0.47,-0.23,-0.23,0,*4E
1504512288.7,42108,17.38,73312.8,0.47,-0.23,-0.23,0,*41
1504512289.93,42109,17.38,73312.8,0.47,-0.23,-0.15,0,*45
1504512291.16,42110,17.38,73308.8,0.47,-0.23,-0.15,0,*4D
1504512292.38,42111,17.38,73312.8,0.47,-0.27,-0.15,0,*48
1504512293.61,42112,17.38,73328.8,0.47,-0.23,-0.15,0,*4F
1504512294.81,42113,17.38,73336.8,0.51,-0.19,-0.11,0,*44
1504512296.01,42114,17.38,73332.0,0.51,-0.19,-0.07,0,*74
1504512297.21,42115,17.38,73326.8,0.51,-0.19,-0.07,0,*75
1504512298.41,42116,17.38,73324.5,0.51,-0.19,-0.19,0,*49
1504512299.61,42117,17.38,73318.0,0.53,-0.23,-0.11,0,*4B
1504512300.78,42118,17.38,73302.5,0.53,-0.19,-0.19,0,*45
1504512301.97,42119,17.38,73296.8,0.53,-0.23,-0.19,0,*4D
1504512303.21,42120,17.38,73292.8,0.51,-0.23,-0.23,0,*4C
1504512304.42,42121,17.38,73288.0,0.51,-0.19,-0.19,0,*4D
1504512305.64,42122,17.38,73284.0,0.51,-0.23,-0.19,0,*47
1504512306.84,42123,17.38,73288.0,0.53,-0.23,-0.11,0,*4C
1504512308.02,42124,17.38,73302.0,0.53,-0.23,-0.07,0,*7C
1504512309.22,42125,17.38,73306.0,0.53,-0.23,-0.11,0,*4A
1504512310.45,42126,17.38,73314.3,0.51,-0.23,-0.19,0,*43
1504512311.66,42127,17.38,73312.0,0.53,-0.23,-0.23,0,*49
1504512312.85,42128,17.38,73304.3,0.53,-0.23,-0.19,0,*4F
1504512314.07,42129,17.38,73316.8,0.53,-0.23,-0.23,0,*47
1504512315.28,42130,17.38,73314.5,0.53,-0.23,-0.23,0,*4F
1504512316.5,42131,17.38,73308.8,0.53,-0.27,-0.27,0,*4E
1504512317.71,42132,17.38,73310.5,0.53,-0.27,-0.27,0,*4D
1504512318.93,42133,17.38,73312.3,0.53,-0.27,-0.27,0,*4C
1504512320.14,42134,17.38,73308.0,0.53,-0.27,-0.27,0,*4B
1504512321.38,42135,17.38,73312.5,0.55,-0.23,-0.23,0,*4C
1504512322.62,42136,17.38,73310.0,0.55,-0.23,-0.23,0,*4F
1504512323.87,42137,17.38,73316.3,0.55,-0.23,-0.23,0,*4E
1504512325.08,42138,17.38,73318.0,0.53,-0.27,-0.27,0,*47
1504512326.3,42139,17.38,73322.0,0.53,-0.27,-0.27,0,*46
1504512327.51,42140,17.38,73316.0,0.53,-0.27,-0.27,0,*48
1504512328.73,42141,17.38,73320.3,0.53,-0.27,-0.27,0,*49
1504512329.95,42142,17.38,73316.3,0.55,-0.23,-0.19,0,*45
1504512331.17,42143,17.38,73314.5,0.55,-0.23,-0.19,0,*44
1504512332.39,42144,17.38,73314.0,0.55,-0.23,-0.19,0,*43
1504512333.59,42145,17.38,73308.5,0.55,-0.19,-0.19,0,*4B
1504512334.79,42146,17.38,73306.0,0.55,-0.15,-0.15,0,*48
1504512335.96,42147,17.38,73310.3,0.53,-0.19,-0.11,0,*47
1504512337.16,42148,17.38,73314.0,0.55,-0.15,-0.15,0,*46
1504512338.35,42149,17.38,73314.0,0.55,-0.15,-0.07,0,*74
1504512339.54,42150,17.38,73314.8,0.55,-0.15,-0.07,0,*7C
1504512340.7,42151,17.38,73310.5,0.57,-0.15,-0.07,0,*7F
1504512341.89,42152,17.38,73310.0,0.55,-0.15,-0.03,0,*7A
1504512343.06,42153,17.38,73308.5,0.57,-0.15,-0.15,0,*4E
1504512344.23,42154,17.38,73310.5,0.57,-0.19,-0.07,0,*76
1504512345.4,42155,17.38,73310.0,0.57,-0.15,-0.15,0,*48
1504512346.57,42156,17.38,73314.0,0.57,-0.15,-0.15,0,*4B
1504512347.75,42157,17.38,73312.5,0.57,-0.19,-0.15,0,*46
1504512348.94,42158,17.38,73310.5,0.55,-0.15,-0.15,0,*47
1504512350.11,42159,17.31,73306.0,0.57,-0.15,-0.19,0,*48
1504512351.29,42160,17.38,73304.8,0.57,-0.19,-0.19,0,*4E
1504512352.48,42161,17.38,73304.5,0.57,-0.23,-0.19,0,*46
1504512353.67,42162,17.38,73304.3,0.57,-0.23,-0.19,0,*45
1504512354.89,42163,17.38,73304.3,0.57,-0.23,-0.23,0,*4D
1504512356.1,42164,17.38,73306.5,0.57,-0.23,-0.23,0,*4A
1504512357.31,42165,17.38,73296.0,0.57,-0.23,-0.23,0,*4B
1504512358.53,42166,17.38,73300.0,0.57,-0.23,-0.23,0,*48
1504512359.72,42167,17.38,73302.8,0.57,-0.29,-0.23,0,*43
1504512360.9,42168,17.38,73296.3,0.57,-0.29,-0.23,0,*4C
1504512362.1,42169,17.38,73300.0,0.61,-0.23,-0.15,0,*47
1504512363.32,42170,17.38,73298.0,0.59,-0.19,-0.27,0,*4C
1504512364.56,42171,17.38,73304.0,0.59,-0.27,-0.27,0,*40
1504512365.78,42172,17.38,73300.8,0.59,-0.27,-0.19,0,*4E
1504512366.94,42173,17.38,73302.0,0.57,-0.29,-0.29,0,*4C
1504512368.13,42174,17.38,73302.0,0.57,-0.29,-0.23,0,*41
1504512369.29,42175,17.38,73310.0,0.57,-0.29,-0.29,0,*4A
1504512370.45,42176,17.38,73306.3,0.57,-0.29,-0.29,0,*49
1504512371.61,42177,17.38,73306.8,0.57,-0.33,-0.29,0,*43
1504512372.82,42178,17.38,73306.0,0.57,-0.23,-0.23,0,*47
1504512374.01,42179,17.38,73308.8,0.57,-0.29,-0.23,0,*4C
1504512375.2,42180,17.38,73310.5,0.57,-0.29,-0.23,0,*4A
1504512376.41,42181,17.38,73310.0,0.57,-0.23,-0.23,0,*41
1504512377.62,42182,17.38,73318.3,0.57,-0.23,-0.23,0,*42
1504512378.84,42183,17.38,73308.3,0.57,-0.23,-0.23,0,*43
1504512380.03,42184,17.38,73304.5,0.57,-0.23,-0.19,0,*4D
1504512381.23,42185,17.38,73308.5,0.57,-0.23,-0.19,0,*4C
1504512382.4,42186,17.38,73308.0,0.57,-0.19,-0.19,0,*46
1504512383.57,42187,17.38,73304.3,0.57,-0.19,-0.15,0,*4B
1504512384.77,42188,17.38,73308.0,0.59,-0.11,-0.15,0,*42
1504512385.97,42189,17.38,73308.5,0.59,-0.15,-0.11,0,*43
1504512387.17,42190,17.38,73308.0,0.59,-0.15,-0.11,0,*4B
1504512388.37,42191,17.38,73308.5,0.59,-0.15,-0.11,0,*4A
1504512389.54,42192,17.38,73310.5,0.61,-0.11,-0.07,0,*71
1504512390.74,42193,17.38,73310.3,0.59,-0.15,-0.11,0,*48
1504512391.94,42194,17.38,73302.8,0.59,-0.15,-0.15,0,*4B
1504512393.11,42195,17.38,73306.5,0.61,-0.11,-0.11,0,*41
1504512394.29,42196,17.38,73302.3,0.61,-0.11,-0.11,0,*42
1504512395.49,42197,17.38,73300.8,0.59,-0.11,-0.19,0,*40
1504512396.67,42198,17.38,73306.8,0.61,-0.11,-0.15,0,*48
1504512397.87,42199,17.38,73310.0,0.59,-0.15,-0.15,0,*46
1504512399.04,42200,17.38,73298.8,0.61,-0.15,-0.15,0,*4E
1504512400.26,42201,17.38,73288.8,0.61,-0.23,-0.23,0,*4F
1504512401.45,42202,17.38,73288.3,0.61,-0.15,-0.23,0,*49
1504512402.67,42203,17.38,73292.0,0.61,-0.23,-0.23,0,*4D
1504512403.89,42204,17.38,73292.3,0.61,-0.23,-0.27,0,*4E
1504512405.11,42205,17.38,73296.8,0.61,-0.23,-0.27,0,*4F
1504512406.32,42206,17.38,73296.0,0.63,-0.33,-0.27,0,*4F
1504512407.51,42207,17.38,73296.0,0.59,-0.49,-0.49,0,*42
1504512408.69,42208,17.38,73292.8,0.61,-0.37,-0.37,0,*46
1504512409.89,42209,17.38,73298.8,0.63,-0.15,-0.15,0,*45
1504512411.09,42210,17.38,73302.0,0.59,-0.19,-0.19,0,*44
1504512412.29,42211,17.38,73302.8,0.59,-0.11,-0.11,0,*45
1504512413.47,42212,17.38,73306.3,0.59,0.09,0.09,0,*46
1504512414.69,42213,17.38,73306.5,0.59,0.21,0.25,0,*43
1504512415.92,42214,17.38,73308.0,0.59,0.25,0.37,0,*43
1504512417.12,42215,17.38,73302.5,0.61,0.41,0.41,0,*4A
1504512418.33,42216,17.38,73302.0,0.61,0.47,0.47,0,*49
1504512419.54,42217,17.38,73296.3,0.61,0.51,0.47,0,*4F
1504512420.75,42218,17.38,73300.3,0.61,0.51,0.59,0,*4F
1504512421.96,42219,17.38,73308.8,0.61,0.51,0.59,0,*4E
1504512423.16,42220,17.38,73302.8,0.61,0.59,0.63,0,*45
1504512424.36,42221,17.38,73300.8,0.61,0.59,0.63,0,*44
1504512425.58,42222,17.38,73318.8,0.63,0.67,0.67,0,*4C
1504512426.81,42223,17.38,73318.5,0.63,0.67,0.79,0,*42
1504512428.01,42224,17.38,73314.5,0.65,0.79,0.79,0,*4C
1504512429.25,42225,17.38,73308.3,0.63,0.79,0.79,0,*4B
1504512430.45,42226,17.38,73310.5,0.65,0.79,0.79,0,*4E
1504512431.65,42227,17.38,73310.8,0.65,0.71,0.79,0,*47
1504512432.85,42228,17.38,73310.8,0.65,0.63,0.79,0,*4B
1504512434.05,42229,17.38,73312.0,0.65,0.67,0.71,0,*46
1504512435.27,42230,17.38,73304.5,0.67,0.63,0.67,0,*4F
1504512436.51,42231,17.38,73300.0,0.67,0.55,0.63,0,*4F
1504512437.75,42232,17.38,73304.3,0.67,0.55,0.55,0,*49
1504512438.99,42233,17.38,73304.0,0.67,0.55,0.55,0,*48
1504512440.19,42234,17.38,73302.5,0.69,0.67,0.71,0,*46
1504512441.38,42235,17.38,73300.3,0.69,0.67,0.71,0,*47
1504512442.58,42236,17.38,73298.5,0.69,0.67,0.71,0,*44
1504512443.79,42237,17.38,73302.8,0.77,0.75,0.79,0,*41
1504512444.99,42238,17.38,73304.0,0.73,0.75,0.79,0,*4A
1504512446.2,42239,17.38,73310.0,0.73,0.79,0.75,0,*4B
1504512447.41,42240,17.38,73308.3,0.73,0.71,0.75,0,*4D
1504512448.63,42241,17.38,73304.3,0.77,0.79,0.83,0,*49
1504512449.85,42242,17.38,73306.8,0.77,0.79,0.83,0,*4A
1504512451.07,42243,17.38,73310.0,0.77,0.79,0.83,0,*4B
1504512452.28,42244,17.38,73304.3,0.77,0.75,0.83,0,*40
1504512453.53,42245,17.38,73294.3,0.79,0.79,0.79,0,*46
1504512454.75,42246,17.38,73294.8,0.81,0.83,0.83,0,*42
1504512455.96,42247,17.38,73288.5,0.73,0.71,0.75,0,*4A
1504512457.19,42248,17.38,73288.5,0.79,0.75,0.79,0,*47
1504512458.44,42249,17.38,73300.5,0.79,0.75,0.75,0,*4A
1504512459.68,42250,17.38,73300.0,0.79,0.75,0.75,0,*42
1504512460.92,42251,17.38,73304.0,0.79,0.75,0.75,0,*43
1504512462.13,42252,17.38,73308.8,0.77,0.75,0.79,0,*42
1504512463.34,42253,17.38,73306.3,0.77,0.67,0.75,0,*4C
1504512464.55,42254,17.38,73308.0,0.77,0.67,0.75,0,*4B
1504512465.78,42255,17.38,73310.8,0.79,0.67,0.67,0,*47
1504512467.02,42256,17.38,73312.5,0.79,0.63,0.67,0,*40
1504512468.25,42257,17.38,73310.3,0.79,0.67,0.63,0,*41
1504512469.49,42258,17.38,73310.8,0.79,0.63,0.63,0,*4A
1504512470.74,42259,17.38,73300.5,0.79,0.55,0.55,0,*4B
1504512471.99,42260,17.38,73300.3,0.79,0.51,0.55,0,*45
1504512473.23,42261,17.38,73306.5,0.79,0.51,0.51,0,*40
1504512474.47,42262,17.38,73306.0,0.79,0.51,0.51,0,*43
1504512475.72,42263,17.38,73308.3,0.79,0.51,0.55,0,*46
1504512476.97,42264,17.38,73308.3,0.79,0.55,0.55,0,*45
1504512478.22,42265,17.38,73304.3,0.79,0.55,0.55,0,*44
1504512479.46,42266,17.38,73308.5,0.79,0.51,0.55,0,*43
1504512480.69,42267,17.38,73314.3,0.81,0.55,0.59,0,*4D
1504512481.91,42268,17.38,73312.3,0.81,0.59,0.59,0,*4E
1504512483.15,42269,17.38,73310.3,0.79,0.55,0.63,0,*4D
1504512484.37,42270,17.38,73308.8,0.81,0.59,0.59,0,*47
1504512485.6,42271,17.38,73308.0,0.81,0.55,0.55,0,*46
1504512486.82,42272,17.38,73314.3,0.81,0.55,0.67,0,*44
1504512488.04,42273,17.38,73308.8,0.81,0.59,0.59,0,*44
1504512489.26,42274,17.38,73314.0,0.81,0.55,0.59,0,*4F
1504512490.48,42275,17.38,73314.8,0.81,0.59,0.59,0,*42
1504512491.7,42276,17.38,73318.5,0.81,0.55,0.67,0,*40
1504512492.91,42277,17.38,73316.8,0.81,0.59,0.67,0,*4D
1504512494.15,42278,17.38,73316.5,0.83,0.55,0.67,0,*4C
1504512495.37,42279,17.38,73320.0,0.81,0.67,0.71,0,*49
1504512496.58,42280,17.38,73322.0,0.81,0.67,0.71,0,*4F
1504512497.79,42281,17.38,73322.5,0.81,0.71,0.67,0,*4E
1504512499.01,42282,17.38,73322.8,0.81,0.71,0.71,0,*4A
1504512500.26,42283,17.38,73324.3,0.83,0.71,0.71,0,*49
1504512501.5,42284,17.38,73322.8,0.83,0.75,0.75,0,*4E
1504512502.75,42285,17.38,73322.3,0.83,0.71,0.71,0,*4F
1504512503.99,42286,17.38,73320.5,0.83,0.71,0.71,0,*4C
1504512505.23,42287,17.38,73320.0,0.83,0.67,0.71,0,*4A
1504512506.45,42288,17.38,73320.0,0.85,0.71,0.71,0,*44
1504512507.67,42289,17.38,73318.3,0.85,0.71,0.75,0,*41
1504512508.91,42290,17.38,73312.8,0.87,0.59,0.63,0,*46
1504512510.15,42291,17.38,73318.5,0.87,0.51,0.59,0,*46
1504512511.4,42292,17.38,73314.0,0.87,0.47,0.59,0,*42
1504512512.58,42293,17.38,73318.0,0.89,0.43,0.63,0,*40
1504512513.83,42294,17.38,73320.5,0.87,0.47,0.47,0,*4B
1504512515.07,42295,17.38,73322.0,0.87,0.47,0.51,0,*4D
1504512516.29,42296,17.38,73320.3,0.89,0.55,0.55,0,*47